CW9540 Weather Reports


Display with metric or nautical units.
time (UTC)temp
F
wind
direction
speed
MPH
gust
MPH
rain 1hr
in
rain 24hr
in
rain mn
in
humidity
%
barometer
mb
20260901003101 69 0 0.0 1.0 0.00 0.80 0.80 95 1015.5
20260901003004 70 130 0.0 1.0 0.00 0.80 0.80 96 1013.7
20260901002503 70 106 0.0 1.0 0.00 0.80 0.80 96 1013.7
20260901002003 70 89 0.0 1.0 0.00 0.80 0.80 96 1013.7
20260901001602 69 0 0.0 1.0 0.00 0.80 0.80 95 1015.4
20260901001503 70 58 0.0 0.0 0.00 0.80 0.80 96 1013.8
20260901001003 70 213 0.0 1.0 0.00 0.80 0.80 96 1013.7
20260901000504 70 136 0.0 1.0 0.00 0.80 0.80 96 1013.8
20260901000104 69 0 0.0 1.0 0.00 0.80 0.80 95 1015.6
20260901000004 70 300 0.0 1.0 0.00 0.80 0.80 96 1013.9
20260831235504 70 115 0.0 1.0 0.00 0.80 0.80 96 1013.8
20260831235004 70 99 0.0 2.0 0.00 0.80 0.80 96 1013.8
20260831234554 69 142 0.0 2.0 0.00 0.80 0.80 95 1015.5
20260831234504 70 155 1.0 2.0 0.00 0.80 0.80 96 1013.8
20260831234004 70 105 0.0 1.0 0.00 0.80 0.80 96 1013.8
20260831233101 69 0 0.0 1.0 0.00 0.80 0.80 95 1015.5
20260831233004 70 148 0.0 1.0 0.00 0.80 0.80 96 1013.9
20260831232503 70 106 0.0 1.0 0.00 0.80 0.80 96 1013.9
20260831232004 70 17 0.0 1.0 0.00 0.80 0.80 96 1013.9
20260831231603 69 0 0.0 3.0 0.00 0.80 0.80 95 1015.5
20260831231504 70 67 0.0 1.0 0.00 0.80 0.80 96 1013.9
20260831231004 70 31 0.0 2.0 0.01 0.80 0.80 96 1013.8
20260831230504 70 228 1.0 3.0 0.01 0.80 0.80 96 1013.8
20260831230057 69 89 1.0 3.0 0.01 0.80 0.80 95 1015.5
20260831230004 70 89 1.0 3.0 0.01 0.80 0.80 96 1013.9
20260831225504 70 321 1.0 2.0 0.01 0.80 0.80 96 1013.9
20260831225003 70 82 1.0 2.0 0.01 0.80 0.80 96 1014.0
20260831224555 69 1 2.0 3.0 0.01 0.80 0.80 95 1015.6
20260831224503 70 341 2.0 3.0 0.01 0.80 0.80 96 1014.1
20260831224003 70 88 0.0 1.0 0.01 0.80 0.80 96 1013.9
20260831223504 70 234 0.0 1.0 0.01 0.80 0.80 96 1014.0
20260831223059 69 89 1.0 2.0 0.01 0.80 0.80 95 1015.6
20260831223003 70 337 1.0 2.0 0.01 0.80 0.80 96 1014.0
20260831222503 70 62 1.0 2.0 0.01 0.80 0.80 96 1013.9
20260831222004 70 319 0.0 1.0 0.01 0.80 0.80 96 1013.9
20260831221554 69 0 0.0 1.0 0.01 0.80 0.80 95 1015.5
20260831221004 70 117 0.0 1.0 0.00 0.79 0.79 96 1014.0
20260831220504 70 138 0.0 1.0 0.00 0.79 0.79 96 1014.0
20260831220053 69 0 0.0 1.0 0.00 0.79 0.79 95 1015.7
20260831215504 70 76 0.0 1.0 0.00 0.79 0.79 96 1014.2
20260831215004 70 40 0.0 1.0 0.00 0.79 0.79 96 1014.1
20260831214557 69 0 0.0 1.0 0.00 0.79 0.79 95 1015.8
20260831214504 70 6 1.0 1.0 0.00 0.79 0.79 96 1014.1
20260831214004 70 272 0.0 1.0 0.01 0.79 0.79 96 1014.1
20260831213054 69 0 0.0 1.0 0.01 0.79 0.79 95 1015.7
20260831213003 70 133 0.0 1.0 0.01 0.79 0.79 96 1014.0
20260831212503 70 222 0.0 1.0 0.02 0.79 0.79 96 1014.1
20260831212003 70 357 0.0 1.0 0.03 0.79 0.79 96 1014.2
20260831211555 69 0 0.0 2.0 0.03 0.79 0.79 95 1015.9
20260831211503 70 42 1.0 1.0 0.03 0.79 0.79 96 1014.2
20260831211003 70 329 0.0 2.0 0.04 0.79 0.79 96 1014.3
20260831210504 70 174 1.0 2.0 0.05 0.79 0.79 96 1014.3
20260831210058 69 0 0.0 2.0 0.06 0.79 0.79 95 1015.9
20260831210004 70 108 1.0 2.0 0.07 0.79 0.79 96 1014.2
20260831205504 70 198 1.0 2.0 0.07 0.79 0.79 96 1014.3
20260831204555 69 0 0.0 1.0 0.08 0.79 0.79 95 1016.0
20260831204504 70 136 0.0 1.0 0.08 0.79 0.79 96 1014.2
20260831204004 70 107 0.0 1.0 0.08 0.78 0.78 96 1014.2
20260831203503 69 121 0.0 1.0 0.09 0.78 0.78 95 1014.3
20260831203056 69 0 0.0 2.0 0.10 0.78 0.78 95 1016.1
20260831202504 69 274 0.0 2.0 0.09 0.77 0.77 95 1014.4
20260831201603 69 223 0.0 2.0 0.09 0.76 0.76 95 1016.1
20260831201504 70 224 0.0 1.0 0.10 0.76 0.76 95 1014.4
20260831201003 69 191 0.0 2.0 0.13 0.75 0.75 95 1014.5
20260831200503 69 198 1.0 2.0 0.16 0.74 0.74 95 1014.4
20260831200058 69 0 0.0 3.0 0.19 0.73 0.73 95 1016.2
20260831200003 70 185 1.0 2.0 0.19 0.72 0.72 96 1014.6
20260831195003 69 133 1.0 2.0 0.20 0.72 0.72 95 1014.8
20260831194615 69 0 0.0 2.0 0.19 0.71 0.71 95 1016.3
20260831194503 69 243 0.0 2.0 0.19 0.71 0.71 95 1014.8
20260831194004 69 149 0.0 1.0 0.19 0.70 0.70 95 1014.9
20260831193504 69 108 0.0 2.0 0.20 0.69 0.69 95 1014.9
20260831193054 69 89 0.0 2.0 0.22 0.68 0.68 95 1016.5
20260831193004 69 101 1.0 2.0 0.23 0.68 0.68 95 1014.9
20260831192504 69 91 1.0 2.0 0.27 0.68 0.68 95 1015.1
20260831192004 69 196 1.0 2.0 0.28 0.68 0.68 95 1015.2
20260831191606 69 206 1.0 4.0 0.28 0.66 0.66 94 1016.7
20260831191504 69 205 1.0 3.0 0.28 0.66 0.66 95 1015.2
20260831191004 69 189 1.0 3.0 0.28 0.62 0.62 95 1015.2
20260831190504 69 241 2.0 3.0 0.24 0.58 0.58 95 1015.2
20260831190117 69 234 2.0 7.0 0.19 0.52 0.52 94 1016.7
20260831190004 70 172 3.0 6.0 0.19 0.53 0.53 95 1015.2
20260831185503 70 182 1.0 3.0 0.20 0.52 0.52 95 1015.3
20260831184602 69 173 1.0 3.0 0.21 0.52 0.52 95 1016.7
20260831184503 70 163 1.0 2.0 0.21 0.52 0.52 95 1015.1
20260831184003 70 181 1.0 3.0 0.20 0.51 0.51 95 1015.2
20260831183503 70 199 1.0 2.0 0.18 0.49 0.49 95 1015.1
20260831183101 69 108 0.0 3.0 0.15 0.46 0.46 95 1016.6
20260831183004 70 102 1.0 3.0 0.14 0.45 0.45 95 1015.1
20260831182504 70 180 1.0 3.0 0.10 0.41 0.41 95 1015.3
20260831182004 70 288 1.0 3.0 0.09 0.40 0.40 95 1015.4
20260831181601 69 193 0.0 3.0 0.07 0.38 0.38 94 1016.8
20260831181504 70 123 1.0 2.0 0.07 0.38 0.38 95 1015.3
20260831181004 70 174 1.0 3.0 0.03 0.34 0.34 95 1015.4
20260831180504 70 177 1.0 3.0 0.04 0.34 0.34 95 1015.5
20260831180054 70 202 0.0 3.0 0.04 0.34 0.34 94 1017.0
20260831180004 70 177 1.0 3.0 0.05 0.34 0.34 95 1015.5
20260831175004 70 178 2.0 3.0 0.04 0.32 0.32 95 1015.5
20260831174634 70 178 1.0 4.0 0.03 0.31 0.31 94 1017.0
20260831174503 70 171 1.0 3.0 0.03 0.31 0.31 95 1015.6
20260831174003 70 217 0.0 3.0 0.04 0.31 0.31 95 1015.7
20260831173503 70 232 1.0 2.0 0.04 0.31 0.31 95 1015.6
20260831173059 70 0 0.0 3.0 0.04 0.31 0.31 95 1017.0
20260831173003 70 169 1.0 2.0 0.05 0.31 0.31 96 1015.6
20260831172503 70 139 1.0 3.0 0.05 0.31 0.31 95 1015.5
20260831172003 70 127 0.0 2.0 0.05 0.31 0.31 95 1015.7
20260831171554 70 152 0.0 3.0 0.05 0.31 0.31 94 1017.3
20260831171503 70 172 1.0 3.0 0.05 0.31 0.31 95 1015.9
20260831171004 71 184 1.0 3.0 0.06 0.31 0.31 96 1015.9
20260831170504 70 80 0.0 2.0 0.05 0.30 0.30 96 1016.0
20260831170058 70 201 1.0 3.0 0.05 0.30 0.30 95 1017.6
20260831165503 70 121 0.0 2.0 0.03 0.28 0.28 95 1016.0
20260831165003 70 170 0.0 2.0 0.03 0.28 0.28 95 1016.0
20260831164556 70 0 0.0 3.0 0.04 0.29 0.28 95 1017.4
20260831164503 70 145 1.0 2.0 0.04 0.28 0.28 95 1016.0
20260831164004 70 176 1.0 3.0 0.03 0.27 0.27 95 1016.0
20260831163504 70 212 2.0 3.0 0.05 0.28 0.27 95 1016.2
20260831163055 69 0 0.0 2.0 0.05 0.28 0.27 95 1017.7
20260831163004 70 259 1.0 2.0 0.04 0.27 0.26 96 1016.3
20260831162504 70 129 1.0 2.0 0.05 0.27 0.26 95 1016.3
20260831162004 70 239 1.0 2.0 0.05 0.27 0.26 95 1016.3
20260831161605 70 240 0.0 2.0 0.05 0.27 0.26 95 1017.8
20260831161504 70 147 1.0 2.0 0.05 0.27 0.26 96 1016.4
20260831160058 69 89 0.0 2.0 0.05 0.26 0.25 95 1018.1
20260831160003 70 354 1.0 2.0 0.05 0.26 0.25 96 1016.5
20260831155503 70 99 1.0 2.0 0.05 0.26 0.25 96 1016.5
20260831154619 69 1 0.0 2.0 0.05 0.25 0.24 96 1018.1
20260831154503 70 96 1.0 2.0 0.05 0.25 0.24 96 1016.5
20260831154003 69 22 1.0 2.0 0.05 0.25 0.24 96 1016.4
20260831153503 69 39 0.0 2.0 0.04 0.23 0.22 96 1016.5
20260831153115 69 0 0.0 2.0 0.04 0.23 0.22 95 1018.0
20260831153003 69 94 0.0 2.0 0.04 0.23 0.22 96 1016.6
20260831152503 69 152 0.0 1.0 0.05 0.22 0.21 96 1016.7
20260831152003 69 49 0.0 2.0 0.06 0.22 0.21 95 1016.8
20260831151612 69 331 0.0 2.0 0.07 0.22 0.21 95 1018.3
20260831151503 69 330 0.0 1.0 0.07 0.22 0.21 96 1016.8
20260831151004 69 127 0.0 1.0 0.06 0.21 0.20 96 1016.7
20260831150504 69 164 0.0 1.0 0.06 0.21 0.20 96 1016.6
20260831150101 68 0 0.0 1.0 0.07 0.21 0.20 95 1018.1
20260831150004 69 207 0.0 1.0 0.08 0.21 0.20 95 1016.6
20260831145004 69 151 0.0 1.0 0.09 0.21 0.20 96 1016.6
20260831144557 68 0 0.0 2.0 0.09 0.20 0.19 95 1018.1
20260831143053 68 1 0.0 1.0 0.10 0.19 0.18 95 1018.1
20260831141604 67 0 0.0 2.0 0.07 0.15 0.14 95 1017.8
20260831140107 67 135 0.0 2.0 0.09 0.14 0.13 95 1017.6
20260831134603 67 0 0.0 1.0 0.08 0.11 0.10 95 1017.7
20260831133103 67 0 0.0 2.0 0.07 0.09 0.08 95 1017.9
20260831131601 67 0 0.0 1.0 0.06 0.08 0.07 95 1018.1
20260831130109 67 0 0.0 1.0 0.03 0.05 0.04 95 1018.1
20260831124555 67 0 0.0 2.0 0.01 0.03 0.02 95 1018.1
20260831123103 67 0 0.0 2.0 0.00 0.02 0.01 95 1017.9
20260831121624 67 0 0.0 2.0 0.00 0.02 0.01 95 1017.9
20260831120055 66 295 0.0 1.0 0.00 0.02 0.01 95 1018.3
20260831114604 66 0 0.0 1.0 0.00 0.02 0.01 95 1018.3
20260831113102 66 0 0.0 1.0 0.00 0.02 0.01 94 1018.2
20260831113003 66 124 0.0 1.0 0.00 0.02 0.01 95 1016.8
20260831112004 66 234 0.0 1.0 0.00 0.02 0.01 95 1017.0
20260831111556 65 0 0.0 1.0 0.00 0.02 0.01 94 1018.3
20260831110057 65 0 0.0 1.0 0.00 0.02 0.01 94 1018.1
20260831110004 66 131 0.0 1.0 0.00 0.02 0.01 95 1016.7
20260831104556 66 0 0.0 2.0 0.01 0.02 0.01 94 1018.3
20260831103055 65 241 1.0 3.0 0.01 0.02 0.01 95 1018.0
20260831101605 65 178 1.0 2.0 0.01 0.02 0.01 94 1017.8
20260831100057 64 0 0.0 1.0 0.01 0.02 0.01 94 1018.2
20260831094604 64 0 0.0 2.0 0.00 0.01 0.00 94 1018.3
20260831093149 64 197 0.0 2.0 0.00 0.01 0.00 94 1018.2
20260831091554 64 0 0.0 1.0 0.00 0.01 0.00 94 1018.3
20260831090056 64 0 0.0 1.0 0.00 0.01 0.00 94 1018.2
20260831084638 64 0 0.0 1.0 0.00 0.01 0.00 94 1018.5
20260831083106 64 0 0.0 1.0 0.00 0.01 0.00 94 1018.5
20260831081556 63 0 0.0 1.0 0.00 0.01 0.00 94 1018.6
20260831080122 63 0 0.0 1.0 0.00 0.01 0.00 94 1018.5
20260831075504 64 168 0.0 1.0 0.00 0.01 0.00 94 1017.0
20260831074557 63 0 0.0 1.0 0.00 0.01 0.00 94 1018.4
20260831074504 64 347 0.0 1.0 0.00 0.01 0.00 94 1016.9
20260831074004 64 123 0.0 1.0 0.00 0.01 0.00 94 1016.9
20260831073219 63 0 0.0 1.0 0.00 0.01 0.00 94 1018.4
20260831072503 64 64 0.0 1.0 0.00 0.01 0.00 94 1016.9
20260831072004 64 9 0.0 1.0 0.00 0.01 0.00 94 1017.0
20260831071601 63 0 0.0 1.0 0.00 0.01 0.00 94 1018.5
20260831071503 64 169 0.0 1.0 0.00 0.01 0.00 94 1017.0
20260831071003 64 169 0.0 1.0 0.00 0.01 0.00 94 1016.9
20260831070504 64 106 0.0 1.0 0.00 0.01 0.00 94 1017.0
20260831070004 64 26 0.0 1.0 0.00 0.01 0.00 94 1017.1
20260831065504 64 174 0.0 1.0 0.00 0.01 0.00 94 1017.0
20260831065003 64 1 0.0 1.0 0.00 0.01 0.00 94 1016.9
20260831064558 63 1 0.0 1.0 0.00 0.01 0.00 94 1018.5
20260831064503 64 82 0.0 1.0 0.00 0.01 0.00 94 1017.0
20260831064003 64 92 0.0 1.0 0.00 0.01 0.00 94 1017.1
20260831063504 64 90 0.0 1.0 0.00 0.01 0.00 94 1017.2
20260831063108 63 0 0.0 1.0 0.00 0.01 0.00 94 1018.7
20260831063004 64 142 0.0 1.0 0.00 0.01 0.00 94 1017.2
20260831062504 64 231 0.0 1.0 0.00 0.01 0.00 94 1017.1
20260831062003 63 184 0.0 1.0 0.00 0.01 0.00 94 1017.0
20260831061554 63 0 0.0 1.0 0.00 0.01 0.00 94 1018.5
20260831061503 63 93 0.0 1.0 0.00 0.01 0.00 94 1017.0
20260831061003 63 77 0.0 1.0 0.00 0.01 0.00 94 1017.1
20260831060503 63 92 0.0 1.0 0.00 0.01 0.00 94 1017.2
20260831060117 63 0 0.0 1.0 0.00 0.01 0.00 94 1018.7
20260831055504 63 296 0.0 1.0 0.00 0.01 0.00 94 1017.2
20260831055004 63 261 0.0 1.0 0.00 0.01 0.00 94 1017.1
20260831054556 63 0 0.0 1.0 0.00 0.01 0.00 94 1018.7
20260831054504 63 230 0.0 0.0 0.00 0.01 0.00 94 1017.2
20260831053504 63 46 0.0 0.0 0.00 0.01 0.00 94 1017.3
20260831053105 63 0 0.0 1.0 0.00 0.01 0.00 93 1018.8
20260831053003 63 45 0.0 1.0 0.00 0.01 0.00 94 1017.3
20260831052503 63 50 0.0 1.0 0.00 0.01 0.00 94 1017.4
20260831052004 63 78 0.0 1.0 0.00 0.01 0.00 94 1017.2
20260831051557 63 0 0.0 2.0 0.00 0.01 0.00 94 1018.9
20260831051504 63 137 0.0 1.0 0.00 0.01 0.00 94 1017.3
20260831051004 63 154 0.0 2.0 0.00 0.01 0.00 94 1017.4
20260831050503 63 188 0.0 2.0 0.00 0.01 0.00 94 1017.5
20260831050103 62 223 0.0 1.0 0.00 0.01 0.00 93 1019.0
20260831050004 63 211 1.0 1.0 0.00 0.01 0.00 94 1017.5
20260831045503 63 209 1.0 1.0 0.00 0.01 0.00 94 1017.5
20260831045003 63 99 0.0 1.0 0.00 0.01 0.00 94 1017.6
20260831044552 62 0 0.0 1.0 0.00 0.01 0.00 93 1019.3
20260831044503 63 354 0.0 1.0 0.00 0.01 0.00 94 1017.7
20260831044004 63 29 0.0 1.0 0.00 0.01 0.00 94 1017.7
20260831043504 63 200 0.0 2.0 0.00 0.01 0.00 93 1017.7
20260831043058 62 206 0.0 1.0 0.00 0.01 0.00 93 1019.4
20260831043004 63 200 1.0 1.0 0.00 0.01 0.00 93 1017.8
20260831042503 63 111 0.0 1.0 0.00 0.01 0.00 93 1017.8
20260831041554 62 0 0.0 1.0 0.00 0.01 0.00 93 1019.2
20260831041504 63 353 0.0 1.0 0.00 0.01 0.00 93 1017.6
20260831041003 63 48 0.0 1.0 0.00 0.01 0.00 93 1017.5
20260831040503 63 332 0.0 1.0 0.00 0.01 0.00 93 1017.6
20260831040055 63 0 0.0 0.0 0.00 0.01 0.00 92 1019.2
20260831040004 63 103 0.0 0.0 0.00 0.01 0.00 93 1017.6
20260831035503 63 144 0.0 0.0 0.00 0.01 0.01 93 1017.6
20260831035003 63 43 0.0 1.0 0.00 0.01 0.01 93 1017.5
20260831034610 63 0 0.0 1.0 0.00 0.01 0.01 93 1019.2
20260831034504 63 45 0.0 1.0 0.00 0.01 0.01 93 1017.6
20260831034004 63 224 0.0 1.0 0.00 0.01 0.01 93 1017.5
20260831033504 63 182 0.0 0.0 0.00 0.01 0.01 93 1017.6
20260831033058 63 0 0.0 1.0 0.00 0.01 0.01 92 1019.1
20260831033004 64 30 0.0 1.0 0.00 0.01 0.01 93 1017.6
20260831032003 64 147 0.0 1.0 0.00 0.01 0.01 93 1017.6
20260831031556 63 145 0.0 1.0 0.00 0.01 0.01 92 1019.1
20260831031004 64 19 0.0 1.0 0.00 0.01 0.01 93 1017.7
20260831030504 64 238 0.0 1.0 0.00 0.01 0.01 93 1017.6
20260831030057 64 0 0.0 1.0 0.00 0.01 0.01 92 1018.9
20260831030003 64 179 0.0 1.0 0.00 0.01 0.01 92 1017.4
20260831025503 64 95 0.0 0.0 0.00 0.01 0.01 93 1017.4
20260831025003 64 70 0.0 1.0 0.00 0.01 0.01 93 1017.4
20260831024558 64 0 0.0 1.0 0.00 0.01 0.01 92 1019.0
20260831024503 64 240 0.0 1.0 0.00 0.01 0.01 92 1017.4
20260831024004 64 233 0.0 1.0 0.00 0.01 0.01 93 1017.4
20260831023504 64 219 0.0 1.0 0.00 0.01 0.01 92 1017.4
20260831023055 64 0 0.0 2.0 0.00 0.01 0.01 92 1018.9
20260831022503 65 73 0.0 1.0 0.00 0.01 0.01 92 1017.6
20260831022003 65 185 0.0 1.0 0.00 0.01 0.01 92 1017.6
20260831021554 64 0 0.0 1.0 0.00 0.01 0.01 92 1019.2
20260831021503 65 180 1.0 1.0 0.00 0.01 0.01 92 1017.6
20260831021004 65 198 0.0 1.0 0.00 0.01 0.01 92 1017.6
20260831020504 65 193 0.0 1.0 0.00 0.01 0.01 92 1017.7
20260831020056 64 0 0.0 2.0 0.00 0.01 0.01 92 1019.2
20260831020004 65 178 1.0 2.0 0.00 0.01 0.01 92 1017.7
20260831015503 65 211 1.0 2.0 0.00 0.01 0.01 92 1017.8
20260831015003 65 221 0.0 1.0 0.00 0.01 0.01 92 1017.9
20260831014621 64 0 0.0 2.0 0.00 0.01 0.01 91 1019.4
20260831014504 65 180 0.0 1.0 0.00 0.01 0.01 92 1018.0
20260831014004 65 179 1.0 2.0 0.00 0.01 0.01 91 1018.0
20260831013504 65 166 0.0 1.0 0.00 0.01 0.01 91 1018.1
20260831013059 64 0 0.0 1.0 0.00 0.01 0.01 91 1019.4
20260831013004 65 56 0.0 1.0 0.00 0.01 0.01 91 1018.0
20260831012503 65 153 0.0 1.0 0.00 0.01 0.01 91 1017.9
20260831012004 65 49 0.0 0.0 0.00 0.01 0.01 91 1017.9
20260831011604 65 0 0.0 1.0 0.00 0.01 0.01 90 1019.2
20260831011506 65 10 0.0 1.0 0.00 0.01 0.01 91 1017.7
20260831011003 65 6 0.0 1.0 0.00 0.01 0.01 91 1017.7
20260831010503 65 47 0.0 1.0 0.00 0.01 0.01 91 1017.5
20260831010107 65 0 0.0 1.0 0.00 0.01 0.01 90 1019.0
20260831005504 65 185 0.0 0.0 0.00 0.01 0.01 90 1017.4
20260831005004 66 73 0.0 1.0 0.00 0.01 0.01 90 1017.4
20260831004555 65 0 0.0 1.0 0.00 0.01 0.01 89 1018.8
20260831004504 66 6 0.0 1.0 0.00 0.01 0.01 90 1017.3
20260831004004 66 51 0.0 1.0 0.00 0.01 0.01 90 1017.2
20260831003504 66 40 0.0 1.0 0.00 0.01 0.01 89 1017.0